Location: Old Broadwell Mill Observatory
(33.8015°N, 85.8137°W)
Time: 05:47:05
(UTC-05:00)

Amateur Radio Satellites - All Passes

Search period start: 23 May 2017 05:17
Search period end: 24 May 2017 05:17
Location: Old Broadwell Mill Observatory, 33.8015°N, 85.8137°W

Satellite Date Start Highest point End Downlink Frequencies (MHz)
Time Altitude Azimuth
AO-7 23 May 05:20:20 05:28:09 46° 294° (WNW) 05:35:58 .
AO-85 23 May 05:23:45 05:28:02 88° 293° (WNW) 05:32:06 145.980
Tancredo 1 23 May 05:23:56 05:26:46 35° 228° (SW) 05:29:35 437.200
RS-15 23 May 05:29:41 05:38:59 24° 324° (NW) 05:48:28 29.354- 29.394
DOVE 4 23 May 05:30:53 05:33:19 15° 94° (E) 05:35:46 437.250
BEESAT 3 23 May 05:42:08 05:45:44 36° 113° (ESE) 05:49:25 437.485
LilacSat-2 23 May 05:45:32 05:46:49 11° 93° (E) 05:48:04 437.200
PCSat 23 May 05:48:46 05:54:13 88° 243° (WSW) 05:59:38 145.827
KKS-1 23 May 06:02:47 06:04:13 11° 267° (W) 06:05:39 437.445
XW-2D 23 May 06:22:48 06:26:21 35° 98° (E) 06:29:52 145.860 - 145.880
CUTE-I 23 May 06:22:56 06:27:40 32° 98° (E) 06:32:24 437.470
XW-2B 23 May 06:30:31 06:34:12 43° 99° (E) 06:37:51 145.730 - 145.750
STRAND 1 23 May 06:34:23 06:38:31 26° 69° (ENE) 06:42:41 437.568
XW-2C 23 May 06:43:50 06:47:41 69° 100° (E) 06:51:30 145.795 - 145.815
XW-2F 23 May 06:45:57 06:49:48 70° 102° (ESE) 06:53:35 145.980 - 146.000
BEESAT 2 23 May 06:49:47 06:53:43 83° 119° (ESE) 06:57:45 435.950
JUGNU 23 May 06:51:14 06:55:35 21° 182° (S) 06:59:57 437.505
NUDT-PHONESAT 23 May 06:57:33 07:01:20 80° 102° (ESE) 07:05:05 437.300
KAITUO 1B 23 May 07:00:24 07:04:14 89° 100° (E) 07:08:00 145.475/437.950
M-CUBED/EXP-1 PRIME 23 May 07:05:14 07:07:37 15° 64° (ENE) 07:09:55 437.505
DOVE 4 23 May 07:07:21 07:11:04 33° 287° (WNW) 07:14:51 437.250
LilacSat-2 23 May 07:17:36 07:21:12 37° 286° (WNW) 07:24:47 437.200
HO-68 23 May 07:19:13 07:25:24 30° 97° (E) 07:31:33 435.675
BEESAT 3 23 May 07:20:57 07:23:26 16° 309° (NW) 07:25:58 437.485
SRMSAT 23 May 07:23:46 07:27:24 17° 170° (S) 07:31:01 437.500
CUBEBUG 2 23 May 07:25:44 07:27:34 12° 93° (E) 07:29:25 437.445
CUTE 1.7 + AOD 2 23 May 07:27:47 07:31:24 26° 96° (E) 07:34:57 437.475
UWE-3 23 May 07:44:46 07:46:22 12° 92° (E) 07:47:58 435.000/436.395/437.385
RS-15 23 May 07:54:17 07:58:30 12° 1° (N) 08:02:42 29.354- 29.394
XW-2D 23 May 07:58:27 08:00:10 13° 292° (WNW) 08:01:53 145.860 - 145.880
NO-84 23 May 08:00:47 08:00:57 10° 119° (ESE) 08:01:08 435.350 FM
AAUSAT CUBESAT 2 23 May 08:01:34 08:04:24 18° 94° (E) 08:07:13 437.432
CUTE-I 23 May 08:03:09 08:07:32 27° 292° (WNW) 08:11:55 437.470
XW-2B 23 May 08:07:09 08:07:56 11° 293° (WNW) 08:08:44 145.730 - 145.750
STRAND 1 23 May 08:13:07 08:17:32 30° 263° (W) 08:21:59 437.568
SO-50 23 May 08:20:23 08:24:48 52° 59° (ENE) 08:29:13 436.795
SEEDS 23 May 08:24:13 08:28:27 84° 102° (ESE) 08:32:37 437.485
XW-2A 23 May 08:30:13 08:33:30 42° 285° (WNW) 08:36:46 145.665 - 145.685
Oscar 11 23 May 08:32:48 08:35:23 15° 94° (E) 08:37:57 .
M-CUBED/EXP-1 PRIME 23 May 08:37:29 08:41:43 43° 255° (WSW) 08:45:44 437.505
JUGNU 23 May 08:40:28 08:43:57 16° 192° (SSW) 08:47:24 437.505
AO-73 23 May 08:53:15 08:57:27 36° 98° (E) 09:01:39 145.935
CUBEBUG 2 23 May 08:59:56 09:04:22 52° 285° (WNW) 09:08:53 437.445
CUTE 1.7 + AOD 2 23 May 09:03:51 09:07:01 21° 290° (WNW) 09:10:10 437.475
ZACube-1 23 May 09:04:38 09:09:06 56° 100° (E) 09:13:36 437.345
HO-68 23 May 09:06:26 09:13:09 44° 292° (WNW) 09:19:51 435.675
SRMSAT 23 May 09:11:35 09:15:54 21° 180° (S) 09:20:12 437.500
UWE-3 23 May 09:18:35 09:23:01 54° 285° (WNW) 09:27:33 435.000/436.395/437.385
TIGRISAT 23 May 09:31:46 09:35:31 31° 72° (ENE) 09:39:18 435.000
NO-84 23 May 09:33:39 09:38:03 84° 308° (NW) 09:42:21 435.350 FM
AAUSAT CUBESAT 2 23 May 09:36:18 09:39:49 28° 288° (WNW) 09:43:20 437.432
PRISM 23 May 09:44:39 09:48:47 74° 76° (ENE) 09:52:55 437.425
FO-29 23 May 09:50:04 09:55:12 57° 74° (ENE) 10:00:17 435.910
EO-88 23 May 09:56:40 09:59:44 25° 97° (E) 10:02:49 145.990 - 145.960
UNISAT 6 23 May 10:01:45 10:06:00 83° 74° (ENE) 10:10:17 437.425
SO-50 23 May 10:02:48 10:04:46 13° 252° (WSW) 10:06:45 436.795
Oscar 11 23 May 10:07:36 10:11:36 36° 287° (WNW) 10:15:33 .
RS-15 23 May 10:08:11 10:17:47 25° 37° (NE) 10:27:02 29.354- 29.394
DELFI C3 23 May 10:29:42 10:33:38 74° 283° (WNW) 10:37:31 145.870
AO-73 23 May 10:30:21 10:33:20 18° 291° (WNW) 10:36:22 145.935
QB50P2 23 May 10:41:25 10:43:29 14° 67° (ENE) 10:45:33 145.880/145.840
ZACube-1 23 May 10:43:12 10:44:51 12° 294° (WNW) 10:46:31 437.345
DUCHIFAT 1 23 May 10:46:10 10:47:07 11° 66° (ENE) 10:48:05 145.980
LO-87 23 May 10:53:27 10:55:29 15° 95° (E) 10:57:31 145.935 - 145.965
SRMSAT 23 May 11:00:41 11:04:24 17° 190° (S) 11:08:06 437.500
TIGRISAT 23 May 11:09:32 11:12:15 17° 266° (W) 11:14:59 435.000
NO-84 23 May 11:14:00 11:16:11 13° 327° (NNW) 11:18:18 435.350 FM
EO-79 23 May 11:18:02 11:21:47 33° 73° (ENE) 11:25:34 145.935-145.965
YUBILEINY 23 May 11:22:39 11:28:21 18° 68° (ENE) 11:34:01 435.215
ESTCUBE 1 23 May 11:23:46 11:27:18 22° 96° (E) 11:30:48 437.505/2401.250
EO-88 23 May 11:30:54 11:33:11 16° 290° (WNW) 11:35:27 145.990 - 145.960
AIST 2D 23 May 11:32:25 11:35:53 64° 260° (W) 11:39:23 435.315
FO-29 23 May 11:38:43 11:40:40 12° 268° (W) 11:42:39 435.910
Oscar 19 23 May 12:02:58 12:04:20 11° 63° (ENE) 12:05:43 437.125/150
NANOSAT C BR1 23 May 12:05:20 12:09:27 66° 258° (WSW) 12:13:38 145.865
POLYITAN 1 23 May 12:06:17 12:10:23 57° 259° (W) 12:14:31 437.675
QB50P2 23 May 12:14:55 12:18:52 40° 261° (W) 12:22:50 145.880/145.840
DUCHIFAT 1 23 May 12:18:16 12:22:17 51° 260° (W) 12:26:21 145.980
RS-15 23 May 12:20:05 12:32:18 85° 63° (ENE) 12:43:49 29.354- 29.394
LO-87 23 May 12:25:59 12:28:53 24° 288° (WNW) 12:31:46 145.935 - 145.965
50 SAT 23 May 12:35:19 12:37:04 13° 95° (E) 12:38:48 437.505
VELOX 1 23 May 12:35:39 12:39:39 34° 98° (E) 12:43:38 145.980
Gurwin Techsat 1B 23 May 12:47:31 12:51:11 19° 66° (ENE) 12:54:53 435.225
BUGSAT 1 23 May 12:51:36 12:55:34 73° 257° (WSW) 12:59:35 437.445
EO-79 23 May 12:55:09 12:57:36 15° 266° (W) 13:00:04 145.935-145.965
SPROUT 23 May 12:58:01 13:02:17 69° 101° (E) 13:06:32 437.525
ESTCUBE 1 23 May 13:00:14 13:04:01 27° 289° (WNW) 13:07:46 437.505/2401.250
YUBILEINY 23 May 13:17:11 13:26:02 80° 266° (W) 13:34:51 435.215
DX 1 23 May 13:23:17 13:27:23 40° 99° (E) 13:31:27 434.975-435.025
UKube-1 23 May 13:23:36 13:27:15 27° 97° (E) 13:30:53 .
Oscar 19 23 May 13:37:44 13:42:55 78° 257° (WSW) 13:48:09 437.125/150
AO-85 23 May 13:58:39 14:01:58 24° 55° (NE) 14:05:25 145.980
50 SAT 23 May 14:07:09 14:09:55 23° 288° (WNW) 14:12:39 437.505
VELOX 1 23 May 14:12:58 14:15:47 17° 292° (WNW) 14:18:37 145.980
AO-7 23 May 14:22:59 14:30:11 35° 63° (ENE) 14:37:25 .
Gurwin Techsat 1B 23 May 14:25:42 14:30:45 45° 260° (W) 14:35:50 435.225
ITAMSAT 1 23 May 14:32:24 14:36:38 26° 68° (ENE) 14:40:53 435.822/435.867
RS-15 23 May 14:35:11 14:43:04 21° 261° (W) 14:50:46 29.354- 29.394
BEESAT 23 May 14:45:10 14:48:25 18° 95° (E) 14:51:38 436.000
O/OREOS (USA 219) 23 May 14:51:52 14:56:24 84° 69° (ENE) 15:00:52 437.305
UKube-1 23 May 14:59:52 15:03:05 21° 291° (WNW) 15:06:17 .
MOZHAYETS 4 23 May 15:00:18 15:02:35 13° 93° (E) 15:04:50
DX 1 23 May 15:00:51 15:03:10 14° 293° (WNW) 15:05:29 434.975-435.025
BEESAT 2 23 May 15:12:08 15:14:36 15° 51° (NE) 15:17:03 435.950
YUBILEINY 23 May 15:18:41 15:21:18 12° 283° (WNW) 15:23:55 435.215
AO-85 23 May 15:38:51 15:42:16 25° 247° (WSW) 15:45:51 145.980
BEESAT 3 23 May 15:39:25 15:43:27 89° 64° (ENE) 15:47:23 437.485
ITUPSAT 1 23 May 15:45:30 15:50:20 84° 101° (ESE) 15:55:09 437.325
ITAMSAT 1 23 May 16:11:26 16:15:56 30° 262° (W) 16:20:27 435.822/435.867
NO-84 23 May 16:13:15 16:14:39 12° 31° (NNE) 16:16:00 435.350 FM
AO-7 23 May 16:14:47 16:22:38 47° 258° (WSW) 16:30:33 .
KKS-1 23 May 16:19:40 16:21:42 13° 94° (E) 16:23:44 437.445
BEESAT 23 May 16:21:50 16:26:16 38° 288° (WNW) 16:30:40 436.000
DOVE 4 23 May 16:33:43 16:35:27 12° 67° (ENE) 16:37:09 437.250
MOZHAYETS 4 23 May 16:35:27 16:39:55 47° 286° (WNW) 16:44:21
BEESAT 2 23 May 16:48:43 16:52:30 40° 247° (WSW) 16:56:16 435.950
STARS 23 May 17:00:05 17:02:42 15° 94° (E) 17:05:18 437.465
XW-2D 23 May 17:03:03 17:03:36 10° 67° (ENE) 17:04:09 145.860 - 145.880
XW-2B 23 May 17:09:45 17:11:23 12° 68° (ENE) 17:13:01 145.730 - 145.750
CUBESAT XI-V 23 May 17:11:45 17:16:24 69° 101° (E) 17:21:00 437.345
XW-2C 23 May 17:22:05 17:24:44 18° 70° (ENE) 17:27:25 145.795 - 145.815
XW-2F 23 May 17:23:48 17:26:27 18° 70° (ENE) 17:29:06 145.980 - 146.000
NUDT-PHONESAT 23 May 17:33:45 17:36:24 19° 71° (ENE) 17:39:05 437.300
KAITUO 1B 23 May 17:37:03 17:39:58 22° 71° (ENE) 17:42:53 145.475/437.950
CUTE-I 23 May 17:40:56 17:45:44 36° 71° (ENE) 17:50:32 437.470
HO-68 23 May 17:46:13 17:50:04 15° 58° (ENE) 17:53:56 435.675
NO-84 23 May 17:49:13 17:52:40 71° 230° (SW) 17:55:48 435.350 FM
KKS-1 23 May 17:54:12 17:58:25 44° 287° (WNW) 18:02:38 437.445
LilacSat-2 23 May 17:54:59 17:58:42 54° 76° (ENE) 18:02:28 437.200
DOVE 4 23 May 18:07:59 18:12:42 56° 260° (W) 18:17:11 437.250
CUTE 1.7 + AOD 2 23 May 18:18:18 18:20:01 12° 67° (ENE) 18:21:44 437.475
XW-2D 23 May 18:33:43 18:37:19 42° 261° (W) 18:40:58 145.860 - 145.880
STARS 23 May 18:35:05 18:39:07 37° 288° (WNW) 18:43:08 437.465
XW-2B 23 May 18:41:43 18:45:11 35° 262° (W) 18:48:43 145.730 - 145.750
PCSat 23 May 18:44:40 18:48:38 21° 106° (ESE) 18:52:38 145.827
STRAND 1 23 May 18:50:33 18:52:15 12° 92° (E) 18:53:58 437.568
XW-2C 23 May 18:55:43 18:58:45 23° 264° (W) 19:01:49 145.795 - 145.815
XW-2F 23 May 18:57:22 19:00:23 23° 264° (W) 19:03:26 145.980 - 146.000
XW-2A 23 May 18:57:49 19:00:39 26° 73° (ENE) 19:03:31 145.665 - 145.685
NUDT-PHONESAT 23 May 19:07:19 19:10:09 21° 264° (W) 19:13:00 437.300
KAITUO 1B 23 May 19:11:11 19:13:52 19° 265° (W) 19:16:34 145.475/437.950
SEEDS 23 May 19:11:52 19:15:39 33° 73° (ENE) 19:19:29 437.485
CUTE-I 23 May 19:21:39 19:25:47 23° 264° (W) 19:29:56 437.470
HO-68 23 May 19:29:39 19:36:50 87° 256° (WSW) 19:44:04 435.675
AO-73 23 May 19:46:02 19:48:42 17° 68° (ENE) 19:51:23 145.935
CUTE 1.7 + AOD 2 23 May 19:51:16 19:55:22 47° 261° (W) 19:59:31 437.475
CUBEBUG 2 23 May 19:53:59 19:58:06 79° 78° (ENE) 20:02:17 437.445
ZACube-1 23 May 19:57:05 20:00:30 25° 71° (ENE) 20:03:59 437.345
UWE-3 23 May 20:11:27 20:15:34 73° 76° (ENE) 20:19:46 435.000/436.395/437.385
ISS 23 May 20:17:29 20:19:51 18° 128° (SE) 20:22:12 437.550
Tancredo 1 23 May 20:18:01 20:20:46 30° 131° (SE) 20:23:30 437.200
AAUSAT CUBESAT 2 23 May 20:21:22 20:25:31 76° 257° (WSW) 20:29:44 437.432
M-CUBED/EXP-1 PRIME 23 May 20:21:41 20:22:59 12° 99° (E) 20:24:18 437.505
PCSat 23 May 20:26:33 20:31:41 43° 301° (WNW) 20:36:50 145.827
STRAND 1 23 May 20:26:41 20:31:48 65° 285° (WNW) 20:36:53 437.568
XW-2A 23 May 20:32:22 20:33:25 11° 266° (W) 20:34:30 145.665 - 145.685
SEEDS 23 May 20:48:44 20:51:23 16° 266° (W) 20:54:02 437.485
Oscar 11 23 May 20:57:38 21:01:57 81° 257° (WSW) 21:06:19 .
DELFI C3 23 May 21:11:04 21:14:41 33° 73° (ENE) 21:18:17 145.870
AO-73 23 May 21:20:54 21:24:37 32° 263° (W) 21:28:26 145.935
HO-68 23 May 21:23:03 21:25:19 12° 269° (W) 21:27:34 435.675
PRISM 23 May 21:31:36 21:33:29 13° 94° (E) 21:35:20 437.425
ZACube-1 23 May 21:33:36 21:36:43 20° 265° (W) 21:39:53 437.345
ISS 23 May 21:53:10 21:56:09 32° 322° (NW) 21:59:10 437.550
Tancredo 1 23 May 21:54:15 21:56:33 19° 326° (NW) 21:58:52 437.200
M-CUBED/EXP-1 PRIME 23 May 21:54:47 21:57:30 24° 293° (WNW) 22:00:09 437.505
UNISAT 6 23 May 21:57:26 22:01:10 24° 96° (E) 22:04:56 437.425
EO-88 23 May 22:03:14 22:06:50 66° 259° (W) 22:10:29 145.990 - 145.960
ESTCUBE 1 23 May 22:20:41 22:22:57 14° 67° (ENE) 22:25:15 437.505/2401.250
SO-50 23 May 22:30:44 22:35:04 42° 114° (ESE) 22:39:23 436.795
FO-29 23 May 22:45:39 22:52:08 78° 103° (ESE) 22:59:26 435.910
DELFI C3 23 May 22:47:24 22:49:30 14° 266° (W) 22:51:37 145.870
LO-87 23 May 22:57:19 23:00:51 64° 76° (ENE) 23:04:21 145.935 - 145.965
TIGRISAT 23 May 23:02:34 23:07:07 65° 285° (WNW) 23:11:44 435.000
AIST 2D 23 May 23:03:03 23:04:27 12° 93° (E) 23:05:51 435.315
PRISM 23 May 23:05:07 23:08:52 37° 287° (WNW) 23:12:36 437.425
VELOX 1 23 May 23:29:38 23:32:50 20° 69° (ENE) 23:36:02 145.980
UNISAT 6 23 May 23:33:55 23:37:45 27° 289° (WNW) 23:41:38 437.425
SPROUT 23 May 23:47:38 23:51:19 30° 72° (ENE) 23:55:02 437.525
NANOSAT C BR1 23 May 23:53:47 23:57:18 25° 97° (E) 00:00:50 145.865
ESTCUBE 1 23 May 23:54:56 23:59:18 47° 261° (W) 00:03:42 437.505/2401.250
POLYITAN 1 23 May 23:55:03 23:58:48 29° 97° (E) 00:02:32 437.675
QB50P2 24 May 00:03:18 00:07:20 40° 99° (E) 00:11:21 145.880/145.840
DUCHIFAT 1 24 May 00:06:03 00:09:50 31° 98° (E) 00:13:37 145.980
SO-50 24 May 00:12:28 00:15:41 19° 309° (NW) 00:18:53 436.795
UKube-1 24 May 00:15:24 00:17:47 15° 67° (ENE) 00:20:10 .
DX 1 24 May 00:15:26 00:18:48 22° 69° (ENE) 00:22:09 434.975-435.025
YUBILEINY 24 May 00:18:59 00:25:26 24° 83° (E) 00:31:55 435.215
RS-15 24 May 00:31:06 00:37:39 17° 98° (E) 00:44:17 29.354- 29.394
FO-29 24 May 00:32:57 00:36:37 16° 295° (WNW) 00:40:32 435.910
AIST 2D 24 May 00:34:33 00:37:42 29° 286° (WNW) 00:40:49 435.315
50 SAT 24 May 00:34:44 00:38:08 56° 76° (ENE) 00:41:32 437.505
BUGSAT 1 24 May 00:37:35 00:40:43 21° 96° (E) 00:43:51 437.445
EO-79 24 May 00:41:27 00:45:41 72° 283° (WNW) 00:49:55 145.935-145.965
VELOX 1 24 May 01:05:09 01:09:03 30° 262° (W) 01:12:56 145.980
SPROUT 24 May 01:24:23 01:27:14 17° 265° (W) 01:30:05 437.525
NANOSAT C BR1 24 May 01:29:37 01:32:51 21° 290° (WNW) 01:36:04 145.865
POLYITAN 1 24 May 01:31:20 01:34:20 19° 291° (WNW) 01:37:21 437.675
QB50P2 24 May 01:40:31 01:42:43 14° 293° (WNW) 01:44:56 145.880/145.840
DUCHIFAT 1 24 May 01:42:26 01:45:14 17° 291° (WNW) 01:48:02 145.980
BEESAT 24 May 01:48:47 01:51:12 14° 65° (ENE) 01:53:39 436.000
UKube-1 24 May 01:49:23 01:53:26 39° 261° (W) 01:57:29 .
DX 1 24 May 01:51:10 01:54:48 26° 263° (W) 01:58:27 434.975-435.025
Oscar 19 24 May 01:53:23 01:58:25 51° 100° (E) 02:03:23 437.125/150
BUGSAT 1 24 May 02:12:36 02:15:58 25° 289° (WNW) 02:19:22 437.445
YUBILEINY 24 May 02:12:55 02:21:28 61° 279° (W) 02:30:07 435.215
AO-7 24 May 02:32:35 02:34:45 11° 91° (E) 02:36:54 .
RS-15 24 May 02:36:10 02:48:09 82° 115° (ESE) 03:00:33 29.354- 29.394
Gurwin Techsat 1B 24 May 02:45:33 02:50:53 82° 284° (WNW) 02:56:11 435.225
ITUPSAT 1 24 May 02:48:09 02:52:49 62° 75° (ENE) 02:57:33 437.325
ITAMSAT 1 24 May 02:50:42 02:52:44 12° 92° (E) 02:54:45 435.822/435.867
JUGNU 24 May 03:02:29 03:03:46 11° 163° (SSE) 03:05:03 437.505
O/OREOS (USA 219) 24 May 03:22:48 03:25:32 16° 100° (E) 03:28:16 437.305
BEESAT 24 May 03:23:53 03:28:29 51° 260° (W) 03:33:08 436.000
MOZHAYETS 4 24 May 03:32:49 03:37:24 80° 259° (WSW) 03:42:02
Oscar 19 24 May 03:34:09 03:37:15 16° 295° (WNW) 03:40:20 437.125/150
AO-85 24 May 04:10:06 04:13:07 19° 111° (ESE) 04:16:02 145.980
CUBESAT XI-V 24 May 04:10:53 04:15:18 42° 73° (ENE) 04:19:45 437.345
AO-7 24 May 04:20:07 04:28:30 77° 106° (ESE) 04:36:52 .
Tancredo 1 24 May 04:21:16 04:24:20 67° 43° (NE) 04:27:21 437.200
ISS 24 May 04:23:50 04:26:58 42° 39° (NE) 04:30:05 437.550
ITAMSAT 1 24 May 04:27:23 04:32:32 64° 286° (WNW) 04:37:41 435.822/435.867
ITUPSAT 1 24 May 04:30:00 04:30:58 11° 268° (W) 04:31:58 437.325
KKS-1 24 May 04:47:46 04:52:12 82° 255° (WSW) 04:56:39 437.445
JUGNU 24 May 04:48:02 04:52:04 19° 172° (S) 04:56:06 437.505
RS-15 24 May 04:51:53 05:02:07 30° 318° (NW) 05:12:34 29.354- 29.394
O/OREOS (USA 219) 24 May 05:00:15 05:04:33 39° 294° (WNW) 05:08:52 437.305
